Flag for Germany Weather past 2 weeks in Weiden in der Oberpfalz, Bavaria, Germany

Now
52 °F

Light rain. Overcast.


Feels Like: 51 °F
Forecast: 38 / 71 °F
Wind: 3 mph from Southwest

Location: Weiden

Current Time: May 30, 2015 at 9:00:46 AM

Latest Report: May 30, 2015 at 8:00 AM


Visibility: 7 mi

Pressure: 29.91 "Hg

Humidity: 94%

Dew point: 50 °F

Location of Weiden in der OberpfalzLocation

Historic Weather in Weiden in der Oberpfalz — Graph

°F

Weiden in der Oberpfalz temperature yesterday

Maximum temperature yesterday: 65 °F (at 4:00 PM)
Minimum temperature yesterday: 47 °F (at 6:00 AM)
Average temperature yesterday: 57 °F

Past Weeks' High & Low Weather Summary

 TemperatureHumidityPressure
High72 °F (May 18, 6:00 PM)100% (May 22, 6:00 AM)30.36 "Hg (May 22, 6:00 AM)
Low38 °F (May 22, 6:00 AM)34% (May 16, 3:00 PM)29.69 "Hg (May 18, 8:00 PM)
Average54 °F69%30.05 "Hg
* Reported May 15 7:00 AM — May 30 7:00 AM, Weiden in der Oberpfalz, Weather by CustomWeather, © 2015

Note: Actual official high and low records may vary slightly from our data, if they occured in-between our weather recording intervals... More about our weather records

Advertising

Weiden in der Oberpfalz weather history for previous 24 hours

 ConditionsComfort  
Time TempWeatherWind HumidityBarometerVisibility
7:00 AM
Sat, May 30
52 °FOvercast.3 mph92%29.90 "Hg8 mi
6:00 AM51 °FOvercast.3 mph93%29.89 "Hg7 mi
5:00 AM51 °FFog.3 mph97%29.90 "Hg4 mi
4:00 AM52 °FFog.3 mph95%29.89 "Hg4 mi
3:00 AM52 °FOvercast.2 mph97%29.88 "Hg6 mi
2:00 AM52 °FOvercast.2 mph97%29.88 "Hg6 mi
1:00 AM51 °FPassing clouds.2 mph97%29.87 "Hg9 mi
12:00 AM51 °FLight rain. Overcast.1 mph99%29.88 "Hg2 mi
11:00 PM
Fri, May 29
51 °FOvercast.1 mph99%29.88 "Hg8 mi
10:00 PM51 °FPassing clouds.2 mph97%29.88 "Hg22 mi
9:00 PM52 °FLight rain. Haze.5 mph98%29.84 "Hg11 mi
8:00 PM61 °FScattered clouds.2 mph76%29.79 "Hg16 mi
7:00 PM64 °FPartly sunny.2 mph69%29.81 "Hg19 mi
6:00 PM64 °FPassing clouds.2 mph67%29.82 "Hg19 mi
5:00 PM63 °FPassing clouds.2 mph66%29.84 "Hg14 mi
4:00 PM65 °FPartly sunny.2 mph59%29.83 "Hg14 mi
3:00 PM60 °FLight rain. Overcast.5 mph75%29.87 "Hg15 mi
2:00 PM64 °FOvercast.2 mph56%29.87 "Hg25 mi
1:00 PM65 °FOvercast.3 mph57%29.89 "Hg14 mi
12:00 PM62 °FPartly sunny.3 mph59%29.91 "Hg19 mi
11:00 AM62 °FOvercast.3 mph64%29.92 "Hg16 mi
10:00 AM60 °FScattered clouds.2 mph66%29.94 "Hg11 mi
9:00 AM56 °FOvercast.2 mph74%29.96 "Hg12 mi
Weather by CustomWeather, © 2015

See weather overviewHow to use our weather pages